KT5AL Weather Reports


Display with metric or nautical units.
time (UTC)temp
F
wind
direction
speed
MPH
gust
MPH
rain 1hr
in
rain 24hr
in
rain mn
in
humidity
%
barometer
mb
20260505062506 74 180 14.0 20.0 0.00 0.00 0.00 77 1004.3
20260505062003 74 157 16.0 21.0 0.00 0.00 0.00 77 1004.3
20260505061506 74 180 17.0 26.0 0.00 0.00 0.00 77 1004.3
20260505061003 74 180 16.0 20.0 0.00 0.00 0.00 75 1004.3
20260505060507 74 157 14.0 18.0 0.00 0.00 0.00 76 1004.3
20260505060003 74 180 17.0 20.0 0.00 0.00 0.00 76 1004.3
20260505055506 74 180 16.0 19.0 0.00 0.00 0.00 77 1004.3
20260505055003 74 157 15.0 19.0 0.00 0.00 0.00 77 1004.3
20260505054506 74 180 16.0 19.0 0.00 0.00 0.00 77 1004.3
20260505054003 74 180 15.0 17.0 0.00 0.00 0.00 78 1004.3
20260505053506 74 157 14.0 17.0 0.00 0.00 0.00 78 1004.3
20260505053003 74 180 12.0 14.0 0.00 0.00 0.00 79 1004.3
20260505052506 74 202 14.0 18.0 0.00 0.00 0.00 79 1004.3
20260505052004 74 157 15.0 21.0 0.00 0.00 0.00 79 1004.3
20260505051506 74 180 13.0 15.0 0.00 0.00 0.00 79 1004.6
20260505051003 74 157 13.0 18.0 0.00 0.00 0.00 79 1004.6
20260505050506 73 157 16.0 19.0 0.00 0.00 0.00 80 1004.6
20260505041505 73 157 13.0 17.0 0.00 0.00 0.00 80 1004.9
20260505041002 73 157 12.0 15.0 0.00 0.00 0.00 80 1004.9
20260505040505 73 157 11.0 14.0 0.00 0.00 0.00 80 1004.9
20260505040011 73 157 15.0 19.0 0.00 0.00 0.00 80 1004.9
20260505035507 73 157 14.0 18.0 0.00 0.00 0.00 79 1004.9
20260505035004 73 180 12.0 16.0 0.00 0.00 0.00 78 1004.9
20260505034507 74 157 12.0 18.0 0.00 0.00 0.00 78 1004.6
20260505034004 74 135 14.0 19.0 0.00 0.00 0.00 78 1004.6
20260505033503 74 157 13.0 19.0 0.00 0.00 0.00 77 1004.6
20260505033006 74 157 14.0 18.0 0.00 0.00 0.00 77 1004.6
20260505032504 74 157 12.0 15.0 0.00 0.00 0.00 76 1004.6
20260505032007 74 157 14.0 19.0 0.00 0.00 0.00 76 1004.6
20260505031504 74 157 10.0 15.0 0.00 0.00 0.00 75 1004.6
20260505031005 74 157 14.0 19.0 0.00 0.00 0.00 75 1004.6
20260505030510 74 157 13.0 19.0 0.00 0.00 0.00 75 1004.6
20260505030009 74 157 16.0 22.0 0.00 0.00 0.00 75 1004.6
20260505025532 74 157 14.0 18.0 0.00 0.00 0.00 76 1004.6
20260505025008 74 157 9.0 16.0 0.00 0.00 0.00 76 1004.6
20260505024504 74 157 14.0 22.0 0.00 0.00 0.00 76 1004.6
20260505024007 74 157 15.0 20.0 0.00 0.00 0.00 76 1004.6
20260505023505 74 157 12.0 15.0 0.00 0.00 0.00 76 1004.6
20260505023007 74 157 13.0 18.0 0.00 0.00 0.00 76 1004.6
20260505022504 74 157 14.0 19.0 0.00 0.00 0.00 76 1004.6
20260505022007 74 157 11.0 14.0 0.00 0.00 0.00 76 1004.6
20260505021504 74 157 14.0 20.0 0.00 0.00 0.00 76 1004.6
20260505021007 74 180 15.0 18.0 0.00 0.00 0.00 76 1004.6
20260505020504 74 157 14.0 21.0 0.00 0.00 0.00 76 1004.6
20260505020008 74 157 13.0 17.0 0.00 0.00 0.00 75 1004.6
20260505015504 74 180 14.0 19.0 0.00 0.00 0.00 75 1004.3
20260505015007 74 157 13.0 19.0 0.00 0.00 0.00 74 1004.3
20260505014504 74 180 14.0 16.0 0.00 0.00 0.00 74 1004.3
20260505014007 74 157 12.0 17.0 0.00 0.00 0.00 73 1004.3
20260505013504 75 157 15.0 21.0 0.00 0.00 0.00 73 1004.3
20260505013007 75 157 11.0 15.0 0.00 0.00 0.00 72 1004.3
20260505012504 75 157 12.0 15.0 0.00 0.00 0.00 72 1004.3
20260505012007 75 157 14.0 19.0 0.00 0.00 0.00 71 1004.3
20260505011508 75 157 12.0 15.0 0.00 0.00 0.00 70 1004.3
20260505011005 76 157 15.0 18.0 0.00 0.00 0.00 71 1004.3
20260505010508 76 157 18.0 23.0 0.00 0.00 0.00 71 1004.3
20260505010006 76 157 16.0 18.0 0.00 0.00 0.00 70 1004.3
20260505005508 76 157 14.0 19.0 0.00 0.00 0.00 70 1004.3
20260505005032 76 180 13.0 17.0 0.00 0.00 0.00 69 1004.3
20260505004508 76 157 15.0 19.0 0.00 0.00 0.00 69 1003.9
20260505004005 76 157 14.0 19.0 0.00 0.00 0.00 67 1003.9
20260505003508 77 112 15.0 19.0 0.00 0.00 0.00 67 1003.9
20260505003005 77 157 14.0 19.0 0.00 0.00 0.00 66 1003.9
20260505002508 77 157 15.0 19.0 0.00 0.00 0.00 66 1003.9
20260505002005 77 157 18.0 20.0 0.00 0.00 0.00 65 1003.9
20260505001508 78 180 17.0 23.0 0.00 0.00 0.00 64 1003.6
20260505001005 78 180 13.0 17.0 0.00 0.00 0.00 63 1003.6
20260505000508 78 180 12.0 17.0 0.00 0.00 0.00 62 1003.6
20260505000006 79 180 17.0 21.0 0.00 0.00 0.00 62 1003.6
20260504235503 79 180 20.0 24.0 0.00 0.00 0.00 60 1003.6
20260504235007 79 180 19.0 24.0 0.00 0.00 0.00 60 1003.6
20260504234503 79 180 18.0 21.0 0.00 0.00 0.00 60 1003.6
20260504234006 79 180 14.0 19.0 0.00 0.00 0.00 61 1003.6
20260504233503 79 180 21.0 25.0 0.00 0.00 0.00 60 1003.6
20260504233006 79 180 15.0 20.0 0.00 0.00 0.00 61 1003.6
20260504232505 79 157 13.0 19.0 0.00 0.00 0.00 61 1003.6
20260504232008 79 180 19.0 25.0 0.00 0.00 0.00 62 1003.6
20260504231505 79 180 17.0 22.0 0.00 0.00 0.00 60 1003.6
20260504231008 79 157 17.0 24.0 0.00 0.00 0.00 60 1003.6
20260504230505 79 180 23.0 27.0 0.00 0.00 0.00 59 1003.6
20260504230005 80 180 22.0 27.0 0.00 0.00 0.00 58 1003.6
20260504225508 80 180 21.0 28.0 0.00 0.00 0.00 57 1003.6
20260504225005 81 180 20.0 24.0 0.00 0.00 0.00 57 1003.6
20260504224535 81 157 18.0 21.0 0.00 0.00 0.00 57 1003.6
20260504224005 81 157 23.0 28.0 0.00 0.00 0.00 56 1003.6
20260504223508 81 202 24.0 29.0 0.00 0.00 0.00 56 1003.6
20260504223005 81 180 22.0 29.0 0.00 0.00 0.00 56 1003.6
20260504222508 81 157 22.0 29.0 0.00 0.00 0.00 56 1003.6
20260504222005 81 157 18.0 21.0 0.00 0.00 0.00 56 1003.6
20260504221508 81 180 23.0 26.0 0.00 0.00 0.00 56 1003.3
20260504221005 81 180 26.0 33.0 0.00 0.00 0.00 56 1003.3
20260504220508 81 157 22.0 27.0 0.00 0.00 0.00 56 1003.6
20260504220008 81 157 22.0 27.0 0.00 0.00 0.00 55 1003.6
20260504215505 81 180 15.0 19.0 0.00 0.00 0.00 57 1003.6
20260504215003 81 180 22.0 27.0 0.00 0.00 0.00 56 1003.6
20260504214507 81 180 18.0 24.0 0.00 0.00 0.00 55 1003.9
20260504214009 81 157 20.0 27.0 0.00 0.00 0.00 54 1003.9
20260504213507 81 180 21.0 24.0 0.00 0.00 0.00 55 1004.3
20260504213004 81 180 18.0 24.0 0.00 0.00 0.00 56 1004.3
20260504212507 80 180 22.0 27.0 0.00 0.00 0.00 56 1004.6
20260504212004 80 180 19.0 25.0 0.00 0.00 0.00 56 1004.6
20260504211507 81 180 16.0 21.0 0.00 0.00 0.00 56 1004.6
20260504211004 81 180 18.0 23.0 0.00 0.00 0.00 57 1004.6
20260504210507 80 180 22.0 28.0 0.00 0.00 0.00 57 1004.9
20260504210004 81 180 20.0 27.0 0.00 0.00 0.00 56 1004.9
20260504205507 80 157 20.0 25.0 0.00 0.00 0.00 57 1005.3
20260504205004 80 157 22.0 29.0 0.00 0.00 0.00 57 1005.3
20260504204508 80 157 18.0 22.0 0.00 0.00 0.00 56 1005.6
20260504204031 80 157 17.0 22.0 0.00 0.00 0.00 57 1005.6
20260504203508 80 157 23.0 29.0 0.00 0.00 0.00 56 1005.6
20260504203005 80 157 17.0 25.0 0.00 0.00 0.00 57 1005.6
20260504202508 80 180 17.0 22.0 0.00 0.00 0.00 57 1005.6
20260504202005 80 180 23.0 26.0 0.00 0.00 0.00 56 1005.6
20260504201504 80 157 20.0 24.0 0.00 0.00 0.00 56 1005.6
20260504201007 79 157 18.0 27.0 0.00 0.00 0.00 56 1005.6
20260504200504 79 202 17.0 22.0 0.00 0.00 0.00 57 1006.3
20260504200007 79 180 18.0 23.0 0.00 0.00 0.00 55 1006.3
20260504195504 79 180 21.0 28.0 0.00 0.00 0.00 56 1006.3
20260504195007 79 157 18.0 25.0 0.00 0.00 0.00 56 1006.3
20260504194505 79 180 18.0 24.0 0.00 0.00 0.00 57 1006.6
20260504194008 79 180 20.0 25.0 0.00 0.00 0.00 57 1006.6
20260504193505 79 180 16.0 21.0 0.00 0.00 0.00 59 1007.0
20260504193008 78 180 23.0 27.0 0.00 0.00 0.00 58 1007.0
20260504192505 78 157 22.0 29.0 0.00 0.00 0.00 58 1007.0
20260504192008 78 180 20.0 28.0 0.00 0.00 0.00 58 1007.0
20260504191505 78 180 23.0 27.0 0.00 0.00 0.00 56 1007.0
20260504191008 78 157 19.0 25.0 0.00 0.00 0.00 58 1007.0
20260504190505 78 157 20.0 27.0 0.00 0.00 0.00 56 1007.7
20260504190008 77 180 19.0 25.0 0.00 0.00 0.00 60 1007.7
20260504185505 77 180 23.0 27.0 0.00 0.00 0.00 58 1007.7
20260504185008 77 157 26.0 30.0 0.00 0.00 0.00 59 1007.7
20260504184505 77 180 23.0 28.0 0.00 0.00 0.00 60 1008.3
20260504184008 76 180 18.0 23.0 0.00 0.00 0.00 60 1008.3
20260504183531 76 157 18.0 22.0 0.00 0.00 0.00 60 1008.3
20260504183008 76 180 22.0 28.0 0.00 0.00 0.00 60 1008.3
20260504182505 76 180 20.0 27.0 0.00 0.00 0.00 60 1008.3
20260504182008 76 157 18.0 24.0 0.00 0.00 0.00 59 1008.3
20260504181505 76 157 22.0 29.0 0.00 0.00 0.00 60 1008.7
20260504181008 76 157 20.0 24.0 0.00 0.00 0.00 60 1008.7
20260504180505 76 180 19.0 24.0 0.00 0.00 0.00 59 1009.0
20260504180008 75 157 22.0 27.0 0.00 0.00 0.00 60 1009.0
20260504175505 75 180 17.0 26.0 0.00 0.00 0.00 61 1009.0
20260504175008 75 180 22.0 28.0 0.00 0.00 0.00 60 1009.0
20260504174506 75 157 23.0 29.0 0.00 0.00 0.00 60 1009.4
20260504174007 74 157 20.0 28.0 0.00 0.00 0.00 63 1009.4
20260504173505 75 157 23.0 30.0 0.00 0.00 0.00 60 1009.4
20260504173008 74 157 19.0 25.0 0.00 0.00 0.00 60 1009.4
20260504172505 74 157 24.0 30.0 0.00 0.00 0.00 61 1009.7
20260504172008 74 157 22.0 28.0 0.00 0.00 0.00 61 1009.7
20260504171509 74 180 23.0 28.0 0.00 0.00 0.00 61 1009.7
20260504171006 74 157 21.0 27.0 0.00 0.00 0.00 61 1009.7
20260504170503 74 157 20.0 25.0 0.00 0.00 0.00 61 1010.0
20260504151004 70 157 18.0 25.0 0.00 0.00 0.00 67 1011.7
20260504150507 70 180 20.0 23.0 0.00 0.00 0.00 66 1011.7
20260504141006 67 180 23.0 27.0 0.00 0.00 0.00 73 1012.4
20260504140503 67 202 24.0 27.0 0.00 0.00 0.00 73 1012.4
20260504130508 64 180 20.0 25.0 0.00 0.00 0.00 78 1013.8
20260504110508 62 180 15.0 20.0 0.00 0.00 0.00 79 1013.8
20260504100507 63 180 15.0 17.0 0.00 0.00 0.00 72 1014.1
20260504082008 61 180 8.0 10.0 0.00 0.00 0.00 71 1015.1
20260504081506 61 180 8.0 10.0 0.00 0.00 0.00 71 1015.1
20260504081008 61 180 9.0 10.0 0.00 0.00 0.00 72 1015.1
20260504080505 61 180 7.0 9.0 0.00 0.00 0.00 72 1015.1